CW2274 Weather Reports


Display with metric or nautical units.
time (UTC)temp
F
wind
direction
speed
MPH
gust
MPH
rain 1hr
in
rain 24hr
in
rain mn
in
humidity
%
barometer
mb
20260505223527 77 242 6.0 14.0 0.00 0.30 0.14 26 1011.0
20260505223023 76 205 8.0 14.0 0.00 0.30 0.14 28 1011.2
20260505222519 75 213 4.0 14.0 0.00 0.30 0.14 28 1011.3
20260505222015 74 256 5.0 22.0 0.00 0.30 0.14 30 1011.3
20260505221531 74 213 12.0 22.0 0.00 0.30 0.14 28 1011.3
20260505221026 75 273 7.0 19.0 0.00 0.30 0.14 30 1011.3
20260505220522 77 257 9.0 19.0 0.00 0.30 0.14 27 1011.5
20260505220034 76 292 10.0 17.0 0.00 0.30 0.14 29 1011.4
20260505215515 75 208 8.0 16.0 0.00 0.30 0.14 30 1011.4
20260505215031 73 220 6.0 16.0 0.00 0.30 0.14 31 1011.7
20260505214527 75 234 5.0 15.0 0.00 0.30 0.14 30 1011.9
20260505214022 75 127 5.0 15.0 0.00 0.30 0.14 29 1011.9
20260505213518 76 228 6.0 16.0 0.00 0.30 0.14 29 1011.9
20260505213014 76 233 8.0 16.0 0.00 0.30 0.14 29 1012.1
20260505212513 76 204 5.0 17.0 0.00 0.30 0.14 30 1012.2
20260505212029 75 246 10.0 18.0 0.00 0.30 0.14 30 1012.1
20260505211524 76 206 11.0 19.0 0.00 0.30 0.14 29 1012.3
20260505211020 76 227 13.0 19.0 0.00 0.30 0.14 27 1012.4
20260505210516 77 235 7.0 20.0 0.00 0.30 0.14 29 1012.1
20260505210044 75 229 11.0 20.0 0.00 0.30 0.14 30 1012.3
20260505205525 75 250 8.0 20.0 0.00 0.30 0.14 30 1012.3
20260505205025 75 204 8.0 22.0 0.00 0.30 0.14 29 1012.4
20260505204521 76 246 10.0 22.0 0.00 0.30 0.14 29 1012.4
20260505204017 76 239 10.0 20.0 0.00 0.30 0.14 28 1012.4
20260505203513 76 257 11.0 21.0 0.00 0.30 0.14 29 1012.4
20260505203029 76 281 11.0 22.0 0.00 0.30 0.14 29 1012.4
20260505202525 75 244 11.0 22.0 0.00 0.30 0.14 28 1012.3
20260505202020 76 276 7.0 25.0 0.00 0.30 0.14 27 1012.3
20260505201520 76 242 11.0 26.0 0.00 0.30 0.14 27 1012.4
20260505201016 75 280 15.0 26.0 0.00 0.30 0.14 29 1012.4
20260505200532 75 279 13.0 24.0 0.00 0.30 0.14 29 1012.3
20260505200039 74 269 14.0 24.0 0.00 0.30 0.14 30 1012.4
20260505195519 75 280 10.0 24.0 0.00 0.30 0.14 31 1012.4
20260505195015 76 213 10.0 26.0 0.00 0.30 0.14 33 1012.5
20260505194531 75 210 11.0 26.0 0.00 0.30 0.14 33 1012.5
20260505194026 74 252 14.0 24.0 0.00 0.30 0.14 35 1012.5
20260505193526 74 217 10.0 21.0 0.00 0.30 0.14 36 1012.6
20260505193022 75 327 11.0 18.0 0.00 0.30 0.14 36 1012.6
20260505192518 74 238 10.0 19.0 0.00 0.30 0.14 40 1012.6
20260505192013 74 229 7.0 21.0 0.00 0.30 0.14 40 1012.7
20260505191528 73 236 10.0 21.0 0.00 0.30 0.14 43 1012.7
20260505191024 74 242 9.0 20.0 0.00 0.30 0.14 43 1012.7
20260505190520 74 222 11.0 18.0 0.00 0.30 0.14 41 1012.9
20260505190031 73 231 10.0 17.0 0.00 0.30 0.14 43 1012.9
20260505185513 74 238 9.0 17.0 0.00 0.30 0.14 43 1013.0
20260505185028 73 251 7.0 17.0 0.00 0.30 0.14 45 1013.0
20260505184524 73 250 8.0 15.0 0.00 0.30 0.14 46 1013.1
20260505184020 73 265 4.0 10.0 0.00 0.30 0.14 50 1013.2
20260505183516 72 243 3.0 14.0 0.00 0.30 0.14 50 1013.4
20260505183032 71 194 4.0 14.0 0.00 0.30 0.14 49 1013.2
20260505182512 72 204 4.0 13.0 0.00 0.30 0.14 49 1013.5
20260505182028 70 111 3.0 12.0 0.00 0.30 0.14 52 1013.5
20260505181524 70 200 5.0 10.0 0.00 0.30 0.14 51 1013.5
20260505181020 71 76 2.0 5.0 0.00 0.30 0.14 51 1013.7
20260505180516 70 235 0.0 8.0 0.00 0.30 0.14 54 1013.9
20260505180044 70 232 2.0 8.0 0.00 0.30 0.14 56 1014.0
20260505175525 69 250 2.0 5.0 0.00 0.30 0.14 56 1014.0
20260505175025 67 196 1.0 4.0 0.00 0.30 0.14 57 1014.1
20260505174521 67 148 2.0 4.0 0.00 0.30 0.14 59 1014.0
20260505174017 66 148 1.0 6.0 0.00 0.30 0.14 61 1014.1
20260505173512 66 112 4.0 7.0 0.00 0.30 0.14 60 1014.0
20260505173028 67 100 1.0 4.0 0.00 0.30 0.14 61 1014.1
20260505172524 67 262 2.0 4.0 0.00 0.30 0.14 59 1014.2
20260505172020 67 281 0.0 3.0 0.00 0.30 0.14 62 1014.1
20260505171519 67 281 2.0 7.0 0.00 0.30 0.14 61 1014.2
20260505171015 67 279 3.0 7.0 0.00 0.30 0.14 62 1014.1
20260505170530 67 358 0.0 4.0 0.00 0.30 0.14 63 1014.1
20260505170038 66 358 1.0 4.0 0.00 0.30 0.14 62 1014.0
20260505165519 66 41 0.0 2.0 0.00 0.30 0.14 64 1014.0
20260505165015 65 41 0.0 3.0 0.00 0.30 0.14 65 1014.0
20260505164531 64 42 2.0 4.0 0.00 0.30 0.14 67 1014.2
20260505164027 65 66 1.0 4.0 0.00 0.30 0.14 70 1014.1
20260505163602 65 35 2.0 4.0 0.00 0.30 0.14 70 1014.0
20260505163018 64 14 2.0 4.0 0.00 0.30 0.14 70 1013.9
20260505162514 64 337 2.0 3.0 0.00 0.30 0.14 72 1013.9
20260505162030 63 330 0.0 3.0 0.00 0.30 0.14 72 1014.1
20260505161526 63 330 2.0 3.0 0.00 0.30 0.14 73 1014.1
20260505161022 63 326 0.0 3.0 0.00 0.30 0.14 73 1014.2
20260505160518 63 326 2.0 4.0 0.00 0.30 0.14 74 1014.2
20260505153031 63 263 0.0 4.0 0.00 0.30 0.14 78 1014.0
20260505152527 63 261 0.0 4.0 0.00 0.30 0.14 79 1014.0
20260505152028 63 254 0.0 4.0 0.00 0.30 0.14 82 1014.0
20260505151523 63 254 1.0 4.0 0.00 0.30 0.14 83 1013.9
20260505151019 62 251 1.0 4.0 0.00 0.30 0.14 83 1013.9
20260505150515 62 235 0.0 3.0 0.00 0.30 0.14 85 1014.0
20260505140531 60 114 0.0 1.0 0.00 0.30 0.14 91 1013.8
20260505125032 59 113 0.0 1.0 0.00 0.30 0.14 92 1012.8
20260505124528 59 113 0.0 1.0 0.00 0.30 0.14 91 1012.9
20260505124023 59 113 0.0 2.0 0.01 0.30 0.14 91 1012.8
20260505123519 59 113 0.0 2.0 0.01 0.30 0.14 91 1012.7
20260505123015 59 113 0.0 2.0 0.02 0.30 0.14 91 1012.7
20260505122531 58 113 1.0 2.0 0.02 0.30 0.14 91 1012.6
20260505122031 59 113 0.0 1.0 0.02 0.30 0.14 91 1012.5
20260505121527 59 113 0.0 1.0 0.02 0.30 0.14 91 1012.6
20260505121024 58 113 0.0 1.0 0.02 0.30 0.14 91 1012.8
20260505120519 58 113 0.0 3.0 0.02 0.30 0.14 91 1012.4
20260505120028 58 113 1.0 4.0 0.02 0.30 0.14 91 1012.3
20260505115529 58 113 1.0 4.0 0.02 0.30 0.14 91 1012.5
20260505115025 59 113 0.0 4.0 0.02 0.30 0.14 91 1012.5
20260505114525 59 113 1.0 4.0 0.02 0.30 0.14 91 1012.3
20260505114021 59 110 2.0 3.0 0.01 0.29 0.13 91 1012.4
20260505113516 59 110 1.0 3.0 0.01 0.29 0.13 91 1012.3
20260505113012 59 110 1.0 5.0 0.00 0.28 0.12 91 1012.4
20260505112528 59 120 2.0 5.0 0.00 0.28 0.12 91 1012.5
20260505112024 59 117 2.0 5.0 0.00 0.28 0.12 92 1012.9
20260505111520 59 116 1.0 3.0 0.00 0.28 0.12 92 1012.7
20260505111019 59 116 1.0 3.0 0.01 0.28 0.12 92 1012.8
20260505110515 59 116 1.0 3.0 0.01 0.28 0.12 92 1012.8
20260505102019 58 91 2.0 5.0 0.02 0.28 0.12 91 1013.0
20260505101515 58 126 2.0 4.0 0.03 0.28 0.12 91 1013.4
20260505101031 58 127 0.0 4.0 0.02 0.27 0.11 91 1013.7
20260505100527 58 129 1.0 6.0 0.02 0.27 0.11 91 1014.0
20260505100036 58 129 3.0 6.0 0.02 0.27 0.11 91 1014.0
20260505095521 58 110 4.0 9.0 0.02 0.27 0.11 91 1013.8
20260505095017 58 101 3.0 9.0 0.02 0.27 0.11 91 1013.8
20260505094513 58 98 4.0 7.0 0.03 0.27 0.11 91 1014.0
20260505094029 58 83 3.0 7.0 0.03 0.27 0.11 91 1014.0
20260505093525 59 88 3.0 4.0 0.03 0.27 0.11 91 1014.0
20260505093020 59 88 1.0 5.0 0.03 0.27 0.11 91 1014.1
20260505092516 59 94 3.0 6.0 0.02 0.26 0.10 91 1014.2
20260505092016 59 98 4.0 11.0 0.03 0.26 0.10 91 1014.1
20260505091512 59 108 6.0 12.0 0.02 0.25 0.09 91 1014.3
20260505091027 59 92 5.0 13.0 0.02 0.25 0.09 91 1014.1
20260505090524 59 111 7.0 13.0 0.02 0.25 0.09 90 1014.1
20260505090030 59 150 7.0 12.0 0.03 0.25 0.09 90 1014.2
20260505085513 59 109 7.0 11.0 0.03 0.25 0.09 91 1014.1
20260505085028 59 92 4.0 10.0 0.02 0.24 0.08 91 1014.4
20260505084528 59 108 4.0 10.0 0.03 0.24 0.08 91 1014.6
20260505084024 59 114 4.0 9.0 0.04 0.24 0.08 91 1014.7
20260505083519 59 119 5.0 9.0 0.04 0.24 0.08 91 1014.7
20260505083015 59 114 4.0 8.0 0.05 0.24 0.08 91 1015.0
20260505082530 59 98 4.0 8.0 0.06 0.24 0.08 91 1015.3
20260505082026 59 100 4.0 6.0 0.05 0.23 0.07 91 1015.6
20260505081522 59 119 2.0 6.0 0.06 0.23 0.07 91 1015.8
20260505081022 59 177 2.0 9.0 0.06 0.23 0.07 91 1015.8
20260505080517 59 85 4.0 9.0 0.06 0.23 0.07 92 1015.7
20260505080045 59 90 4.0 8.0 0.06 0.22 0.06 92 1015.9
20260505075526 59 113 3.0 7.0 0.06 0.22 0.06 92 1016.2
20260505075022 59 127 2.0 4.0 0.06 0.22 0.06 92 1016.4
20260505074518 59 129 2.0 4.0 0.06 0.21 0.05 92 1016.5
20260505074015 59 128 2.0 4.0 0.05 0.20 0.04 91 1016.5
20260505073514 59 137 1.0 2.0 0.06 0.20 0.04 91 1016.6
20260505073030 59 137 1.0 2.0 0.05 0.19 0.03 91 1016.5
20260505072527 59 137 0.0 3.0 0.05 0.18 0.02 91 1016.7
20260505072023 59 137 1.0 3.0 0.05 0.18 0.02 90 1016.4
20260505071519 59 137 1.0 3.0 0.05 0.17 0.01 90 1016.4
20260505071014 59 140 1.0 3.0 0.05 0.17 0.01 90 1016.5
20260505070530 59 142 0.0 3.0 0.06 0.17 0.01 90 1016.4
20260505070037 59 142 1.0 3.0 0.05 0.16 0.00 90 1016.3
20260505065523 59 143 0.0 2.0 0.05 0.16 0.16 90 1016.2
20260505065018 59 143 1.0 2.0 0.06 0.16 0.16 90 1016.2
20260505064514 59 144 1.0 2.0 0.05 0.15 0.15 90 1016.2
20260505064030 59 144 0.0 5.0 0.05 0.15 0.15 89 1016.4
20260505063526 59 144 1.0 5.0 0.04 0.14 0.14 88 1016.3
20260505063021 59 148 3.0 4.0 0.05 0.14 0.14 88 1016.2
20260505062517 59 97 2.0 4.0 0.04 0.13 0.13 88 1016.3
20260505062017 59 85 0.0 1.0 0.05 0.13 0.13 88 1016.3
20260505061513 59 85 0.0 1.0 0.04 0.12 0.12 89 1016.2
20260505061028 59 85 0.0 2.0 0.05 0.12 0.12 89 1016.2
20260505060524 59 85 0.0 3.0 0.04 0.11 0.11 88 1016.1
20260505060033 59 85 1.0 4.0 0.04 0.11 0.11 88 1016.0
20260505055514 59 86 1.0 4.0 0.04 0.11 0.11 88 1015.9
20260505055030 58 90 2.0 4.0 0.04 0.10 0.10 89 1015.9
20260505054529 58 159 1.0 2.0 0.04 0.10 0.10 88 1015.9
20260505054025 58 159 0.0 4.0 0.05 0.10 0.10 88 1015.9
20260505053521 58 159 1.0 4.0 0.04 0.09 0.09 87 1015.8
20260505053017 58 175 1.0 5.0 0.04 0.09 0.09 87 1015.9
20260505052513 58 193 1.0 5.0 0.04 0.09 0.09 87 1015.9
20260505052028 58 140 2.0 10.0 0.04 0.08 0.08 87 1015.7
20260505051524 58 138 2.0 8.0 0.04 0.08 0.08 87 1015.8
20260505051023 58 132 3.0 8.0 0.03 0.07 0.07 86 1015.6
20260505050518 58 151 2.0 4.0 0.03 0.07 0.07 85 1015.7
20260505041519 58 198 0.0 1.0 0.01 0.04 0.04 82 1016.2
20260505041015 58 198 0.0 1.0 0.01 0.04 0.04 81 1016.3
20260505040531 59 198 0.0 1.0 0.01 0.04 0.04 81 1016.2
20260505040038 59 198 0.0 2.0 0.01 0.04 0.04 77 1016.3
20260505035523 59 197 0.0 1.0 0.01 0.04 0.04 75 1016.2
20260505035019 60 197 0.0 2.0 0.00 0.03 0.03 71 1016.2
20260505034515 60 197 0.0 3.0 0.00 0.03 0.03 69 1016.0
20260505034030 60 173 1.0 7.0 0.00 0.03 0.03 68 1015.8
20260505033526 60 133 1.0 7.0 0.00 0.03 0.03 67 1015.5
20260505033022 60 123 2.0 9.0 0.00 0.03 0.03 68 1015.4
20260505032518 60 111 4.0 9.0 0.00 0.03 0.03 67 1015.1
20260505032017 60 144 4.0 12.0 0.00 0.03 0.03 67 1015.2
20260505031513 60 123 4.0 12.0 0.00 0.03 0.03 67 1015.2
20260505031029 60 100 7.0 12.0 0.00 0.03 0.03 66 1015.2
20260505030525 61 118 8.0 12.0 0.01 0.03 0.03 65 1015.1
20260505030033 61 116 7.0 13.0 0.01 0.03 0.03 64 1015.1
20260505025515 62 67 8.0 13.0 0.01 0.03 0.03 61 1015.3
20260505025011 62 84 7.0 13.0 0.02 0.03 0.03 62 1015.3
20260505024511 61 113 8.0 13.0 0.02 0.03 0.03 63 1015.4
20260505024026 61 102 3.0 10.0 0.02 0.03 0.03 62 1015.4
20260505023522 61 142 2.0 6.0 0.03 0.03 0.03 62 1015.5
20260505023018 62 93 0.0 10.0 0.03 0.03 0.03 57 1015.4
20260505022514 62 226 1.0 16.0 0.03 0.03 0.03 54 1015.3
20260505022029 63 219 6.0 16.0 0.03 0.03 0.03 46 1015.3
20260505021525 63 184 7.0 16.0 0.03 0.03 0.03 47 1015.2
20260505021025 62 222 4.0 13.0 0.03 0.03 0.03 54 1015.2
20260505020521 61 204 6.0 14.0 0.02 0.02 0.02 58 1015.2
20260505020028 61 248 4.0 17.0 0.02 0.02 0.02 62 1015.2
20260505015529 61 250 7.0 17.0 0.02 0.02 0.02 64 1015.3
20260505015025 62 242 7.0 15.0 0.01 0.01 0.01 64 1015.4
20260505014522 63 249 7.0 17.0 0.01 0.01 0.01 58 1015.3
20260505014018 64 256 6.0 17.0 0.01 0.01 0.01 53 1015.3
20260505013518 64 229 5.0 14.0 0.00 0.00 0.00 50 1015.4
20260505013014 65 243 4.0 12.0 0.00 0.00 0.00 48 1015.4
20260505012529 66 256 4.0 10.0 0.00 0.00 0.00 51 1015.3
20260505012024 66 277 4.0 10.0 0.00 0.00 0.00 45 1015.2
20260505011520 66 309 1.0 3.0 0.00 0.00 0.00 45 1015.0
20260505011016 66 322 0.0 3.0 0.00 0.00 0.00 47 1015.0
20260505010532 67 280 0.0 7.0 0.00 0.00 0.00 47 1014.7
20260505010039 67 280 2.0 7.0 0.00 0.00 0.00 43 1014.4
20260505005524 67 280 2.0 8.0 0.00 0.00 0.00 39 1014.4
20260505005020 67 200 3.0 10.0 0.00 0.00 0.00 41 1014.5
20260505004516 67 232 4.0 15.0 0.00 0.00 0.00 42 1014.7
20260505004032 66 243 7.0 15.0 0.00 0.00 0.00 45 1014.8
20260505003527 66 243 4.0 11.0 0.00 0.00 0.00 51 1015.0
20260505003024 67 238 2.0 11.0 0.00 0.00 0.00 49 1014.8
20260505002520 66 240 3.0 14.0 0.00 0.00 0.00 49 1014.9
20260505002019 67 252 5.0 14.0 0.00 0.00 0.00 45 1014.8
20260505001515 68 237 5.0 14.0 0.00 0.00 0.00 45 1014.9
20260505001031 69 266 2.0 8.0 0.00 0.00 0.00 46 1014.7
20260505000527 70 267 2.0 6.0 0.00 0.00 0.00 46 1014.6
20260505000035 71 266 2.0 8.0 0.00 0.00 0.00 41 1014.7
20260504235516 72 290 4.0 10.0 0.00 0.00 0.00 37 1014.6
20260504235032 72 282 1.0 10.0 0.00 0.00 0.00 34 1014.4
20260504234532 73 267 1.0 6.0 0.00 0.00 0.00 35 1014.4
20260504234028 73 254 2.0 7.0 0.00 0.00 0.00 33 1014.4
20260504233523 73 265 2.0 7.0 0.00 0.00 0.00 37 1014.3
20260504233019 73 278 1.0 9.0 0.00 0.00 0.00 35 1014.4
20260504232514 73 239 2.0 9.0 0.00 0.00 0.00 37 1014.7
20260504232030 73 309 0.0 10.0 0.00 0.00 0.00 39 1014.8
20260504231526 73 296 3.0 11.0 0.00 0.00 0.00 36 1015.1
20260504231025 74 247 1.0 12.0 0.00 0.00 0.00 31 1015.0
20260504230521 75 282 4.0 11.0 0.00 0.00 0.00 29 1015.3
20260504230029 75 275 5.0 17.0 0.00 0.00 0.00 30 1015.0
20260504225530 76 250 8.0 23.0 0.00 0.00 0.00 27 1015.0
20260504225027 75 242 8.0 23.0 0.00 0.00 0.00 26 1014.6
20260504224523 77 253 11.0 18.0 0.00 0.00 0.00 25 1014.4
20260504224019 77 251 8.0 16.0 0.00 0.00 0.00 22 1014.3